Probability
0 0 0 0 0 0 0 0 0 0 0 0 0 0 0 0 0 0 0 0 0 0 0 0 0 0 0 0 0 0 0 0 0 0 0 0 0 0 0 0 0 0 0 0
0 0 0 0 0 0 0 0 0 0 0 0 0 0 0 0 0 0 0 0 0 0 0 0 0 0 0 0 0 0 0 0 0 0 0 0 0 0 0 0 0 0 0 0
0 0 0 0 0 0 0 0 0 0 0 0 0 0 0 0 0 0 0 0 0 0 0 0 0 0 0 0 0 0 0 0 0 0 0 0 0 0 0 0 0 0 0 0
0 0 0 0 0 0 0 0 0 0 0 0 0 0 0 0 0 0 0 0 0 0 0 0 0 0 0 0 0 0 0 0 0 0 0 0 0 0 0 0 0 0 0 0
0 0 0 0 0 0 0 0 0 0 0 0 0 0 0 0 0 0 0 0 0 0 0 0 0 0 0 0 0 0 0 0 0 0 0 0 0 0 0 0 0 0 0 0
0 0 0 0 0 0 0 0 0 0 0 0 0 0 0 0 0 0 0 0 0 0 0 0 0 0 0 0 0 0 0 0 0 0 0 0 0 0 0 0 0 0 0 0
0 0 0 0 0 0 0 0 0 0 0 0 0 0 0 0 0 0 0 0 0 0 0 0 0 0 0 0 0 0 0 0 0 0 0 0 0 0 0 0 0 0 0 0
0 0 0 0 0 0 0 0 0 0 0 0 0 0 0 0 0 0 0 0 0 0 0 0 0 0 0 0 0 0 0 0 0 0 0 0 0 0 0 0 0 0 0 0
0 0 0 0 0 0 0 0 0 0 0 0 0 0 0 0 0 0 0 0 0 0 0 0 0 0 0 0 0 0 0 0 0 0 0 0 0 0 0 0 0 0 0 0
0 0 0 0 0 0 0 0 0 0 0 0 0 0 0 0 0 0 0 0 0 0 0 0 0 0 0 0 0 0 0 0 0 0 0 0 0 0 0 0 0 0 0 0
0 0 0 0 0 0 0 0 0 0 0 0 0 0 0 0 0 0 0 0 0 0 0 0 0 0 0 0 0 0 0 0 0 0 0 0 0 0 0 0 0 0 0 0
0 0 0 0 0 0 0 0 0 0 0 0 0 0 0 0 0 0 0 0 0 0 0 0 0 0 0 0 0 0 0 0 0 0 0 0 0 0 0 0 0 0 0 0
0 0 0 0 0 0 0 0 0 0 0 0 0 0 0 0 0 0 0 0 0 0 0 0 0 0 0 0 0 0 0 0 0 0 0 0 0 0 0 0 0 0 0 0
0 0 0 0 0 0 0 0 0 0 0 0 0 0 0 0 0 0 0 0 0 0 0 0 0 0 0 0 0 0 0 0 0 0 0 0 0 0 0 0 0 0 0 0
0 0 0 0 0 0 0 0 0 0 0 0 0 0 0 0 0 0 0 0 0 0 0 0 0 0 0 0 0 0 0 0 0 0 0 0 0 0 0 0 0 0 0 0
0 0 0 0 0 0 0 0 0 0 0 0 0 0 0 0 0 0 0 0 0 0 0 0 0 0 0 0 0 0 0 0 0 0 0 0 0 0 0 0 0 0 0 0
0 0 0 0 0 0 0 0 0 0 0 0 0 0 0 0 0 0 0 0 0 0 0 0 0 0 0 0 0 0 0 0 0 0 0 0 0 0 0 0 0 0 0 0
0 0 0 0 0 0 0 0 0 0 0 0 0 0 0 0 0 0 0 0 0 0 0 0 0 0 0 0 0 0 0 0 0 0 0 0 0 0 0 0 0 0 0 0
0 0 0 0 0 0 0 0 0 0 0 0 0 0 0 0 0 0 0 0 0 0 0 0 0 0 0 0 0 0 0 0 0 0 0 0 0 0 0 0 0 0 0 0
0 0 0 0 0 0 0 0 0 0 0 0 0 0 0 0 0 0 0 0 0 0 0 0 0 0 0 0 0 0 0 0 0 0 0 0 0 0 0 0 0 0 0 0
0 0 0 0 0 0 0 0 0 0 0 0 0 0 0 0 0 0 0 0 0 0 0 0 0 0 0 0 0 0 0 0 0 0 0 0 0 0 0 0 0 0 0 0
0 0 0 0 0 0 0 0 0 0 0 0 0 0 0 0 0 0 0 0 0 0 0 0 0 0 0 0 0 0 0 0 0 0 0 0 0 0 0 0 0 0 0 0
0 0 0 0 0 0 0 0 0 0 0 0 0 0 0 0 0 0 0 0 0 0 0 0 0 0 0 0 0 0 0 0 0 0 0 0 0 0 0 0 0 0 0 0
0 0 0 0 0 0 0 0 0 0 0 0 0 0 0 0 0 0 0 0 0 0 0 0 0 0 0 0 0 0 0 0 0 0 0 0 0 0 0 0 0 0 0 0
0 0 0 0 0 0 0 0 0 0 0 0 0 0 0 0 0 0 0 0 0 0 0 0 0 0 0 0 0 0 0 0 0 0 0 0 0 0 0 0 0 0 0 0
0 0 0 0 0 0 0 0 0 0 0 0 0 0 0 0 0 0 0 0 0 0 0 0 0 0 0 0 0 0 0 0 0 0 0 0 0 0 0 0 0 0 0 0
0 0 0 0 0 0 0 0 0 0 0 0 0 0 0 0 0 0 0 0 0 0 0 0 0 0 0 0 0 0 0 0 0 0 0 0 0 0 0 0 0 0 0 0
Wind_Speed
9 9 6 9 10 10 14 14 11 12 14 18 8 6 5 3 5 7 8 10 12 12 12 12 12 11 10 9 9 8 7 6 6 4 2 3 5 6 6 6 8 7 7 8
7 8 7 9 13 15 17 17 21 20 23 19 9 7 6 3 4 7 9 11 12 13 13 14 14 12 11 10 9 8 7 7 5 4 4 4 5 6 7 7 7 7 7 8
6 2 3 11 15 17 11 12 11 19 19 9 7 7 5 5 6 9 10 11 13 15 15 14 14 13 12 10 9 9 8 7 6 5 5 5 6 7 7 7 7 7 7 8
4 3 11 12 3 6 12 15 14 14 13 9 8 5 5 7 9 10 10 10 13 13 13 12 12 12 11 10 10 9 8 7 7 6 6 5 6 7 7 7 7 6 7 9
3 5 11 12 8 4 6 10 11 17 19 16 8 6 9 11 11 11 10 10 11 12 12 12 13 13 12 11 11 10 9 8 8 7 6 6 7 7 7 7 6 6 7 8
4 6 10 11 1 2 1 10 11 12 14 12 2 2 8 5 5 7 6 6 8 10 12 13 14 14 14 13 12 12 11 9 8 8 7 7 7 7 6 6 6 6 6 7
7 9 13 9 5 5 4 10 4 9 11 9 9 12 8 4 5 6 6 7 9 11 12 13 14 15 15 14 14 12 10 9 8 8 8 7 6 5 5 6 6 5 6 6
8 9 16 7 9 12 13 4 4 6 7 8 10 11 9 7 8 8 8 8 10 11 11 12 15 16 15 15 12 11 10 9 8 7 7 6 5 5 5 5 5 5 5 6
15 15 7 11 13 10 4 6 6 6 7 7 9 11 11 9 9 10 10 10 10 10 11 12 15 16 17 14 12 12 11 10 8 7 7 6 5 5 4 4 3 3 4 5
8 11 9 8 10 11 12 14 14 12 11 10 12 13 13 11 9 10 11 11 10 11 13 15 16 16 14 13 14 13 12 10 8 8 7 6 5 4 4 3 3 3 4 5
10 8 7 11 13 16 17 17 16 15 14 13 13 14 14 12 11 10 10 10 11 14 16 16 16 16 13 14 15 14 12 10 9 8 6 5 5 4 4 4 4 4 3 3
16 10 9 11 8 9 12 15 15 15 15 12 11 14 14 12 10 8 10 10 13 16 16 16 16 16 15 16 16 15 13 11 8 7 6 5 4 3 6 6 8 8 7 6
20 17 16 18 16 14 14 15 14 14 15 14 11 10 11 11 9 8 9 12 16 17 15 14 16 17 16 16 17 16 13 12 9 8 7 6 5 4 3 3 5 6 7 7
17 17 20 18 18 16 16 16 14 13 12 11 10 9 9 10 9 9 11 14 14 13 14 14 16 17 17 16 17 16 13 14 12 8 7 6 6 5 4 3 2 2 4 5
18 18 19 17 16 14 13 11 12 13 12 12 10 10 10 11 12 13 12 10 10 12 15 16 17 18 17 18 17 16 13 10 9 8 7 6 6 5 4 4 3 3 2 2
14 14 14 15 14 13 12 11 11 11 10 10 10 10 11 11 12 11 9 9 12 16 17 17 18 17 18 19 18 14 12 17 14 9 8 7 6 5 5 4 3 2 2 1
11 10 9 9 8 9 9 9 9 10 10 11 12 12 11 10 10 10 9 10 13 14 14 16 15 15 18 20 18 13 12 14 19 11 8 8 7 6 5 4 4 3 2 2
5 6 7 7 8 9 10 10 10 11 11 12 12 10 10 10 11 12 10 8 9 11 12 12 13 15 18 19 16 13 13 12 11 10 8 8 7 6 6 5 5 4 3 2
8 8 8 8 7 7 7 8 9 10 11 10 10 11 11 11 11 10 7 7 11 14 11 12 22 19 17 20 19 12 13 14 12 10 9 12 9 7 6 6 5 4 4 3
7 7 7 8 8 7 8 8 9 10 10 10 11 12 12 12 10 9 8 10 12 9 8 13 17 15 17 20 23 12 14 15 14 12 11 10 9 8 7 7 6 5 4 3
7 8 9 10 11 10 10 11 11 12 11 11 11 12 13 13 10 8 7 11 9 8 10 19 15 13 15 18 24 13 15 15 14 13 12 11 10 9 9 8 7 6 5 4
8 9 11 11 12 13 11 11 12 13 13 12 12 11 12 12 11 9 10 10 6 11 10 10 11 17 21 23 15 14 15 15 14 12 12 11 11 10 9 9 8 7 6 5
9 10 12 13 14 16 14 12 12 13 13 12 12 12 12 11 8 8 11 6 5 12 10 9 16 26 31 21 14 15 16 16 15 14 13 12 11 10 10 10 8 7 6 6
12 12 12 13 13 14 16 14 12 11 12 12 11 11 10 9 8 7 8 8 10 12 9 13 24 29 31 15 14 14 15 15 14 13 13 12 10 10 9 9 9 8 7 8
11 12 12 13 13 13 14 14 13 12 12 10 10 10 8 7 8 7 6 6 11 12 8 14 25 29 21 12 14 14 14 14 14 14 13 13 12 11 10 10 9 9 8 7
12 12 12 12 12 12 11 11 11 9 8 9 9 7 6 6 7 7 6 7 9 12 8 7 12 19 14 13 14 14 13 15 16 14 13 13 13 12 11 11 12 9 8 8
12 11 10 11 10 10 9 10 11 11 9 10 11 9 7 6 6 7 7 7 6 7 7 7 9 11 12 12 13 13 12 11 12 13 13 12 12 12 12 13 10 9 9 8
Wind_Direction
267 281 254 238 239 209 213 223 233 246 251 261 254 259 272 241 185 182 179 184 188 188 184 180 180 181 180 177 171 173 180 197 216 231 268 289 287 284 282 282 288 285 287 290
272 257 252 261 250 235 228 233 244 258 270 270 283 281 275 260 206 207 206 199 195 191 187 186 183 181 178 175 170 168 181 195 203 218 242 259 269 273 276 278 281 283 283 287
265 230 344 266 240 223 218 217 212 237 248 279 279 268 259 254 238 228 220 205 197 195 194 188 183 178 178 173 163 168 181 190 197 210 235 253 269 277 279 281 280 281 280 282
268 291 249 246 249 226 222 238 225 242 264 280 275 299 287 256 243 241 226 208 198 193 190 180 172 169 167 164 166 173 182 191 197 206 227 246 261 270 274 273 273 274 276 280
233 251 269 278 260 210 222 270 231 232 252 262 276 320 286 253 228 226 222 205 193 185 177 171 169 167 164 168 170 177 189 194 195 200 217 236 251 260 265 270 276 276 277 282
206 222 248 255 169 81 121 278 251 210 231 248 201 275 267 244 209 217 211 187 173 167 167 171 170 164 169 175 179 189 192 191 190 195 209 227 242 254 264 274 278 284 290 293
220 232 255 261 139 123 190 249 242 197 214 217 196 220 239 204 211 211 204 184 167 167 175 177 168 167 178 182 191 190 179 179 187 197 210 225 241 256 273 280 288 295 302 305
193 215 249 209 155 193 221 259 262 241 227 224 230 249 254 233 223 212 204 188 176 177 180 173 171 175 184 191 186 170 170 177 187 198 213 223 233 254 263 277 294 305 312 309
199 218 241 174 205 228 270 275 265 261 260 252 255 260 262 253 234 218 207 197 186 182 180 179 180 183 190 187 169 166 169 178 187 199 210 214 223 242 258 271 280 297 305 309
242 247 252 236 237 253 258 258 260 257 258 256 255 261 265 260 245 224 210 199 188 184 190 192 188 190 191 174 167 167 174 180 187 197 206 212 219 222 229 246 264 281 295 307
257 264 280 262 242 246 255 260 264 263 257 252 254 260 260 260 250 230 213 198 191 198 201 198 189 190 185 172 168 171 176 181 187 193 196 207 216 214 219 217 226 248 250 274
259 258 253 263 256 251 256 261 263 267 272 265 248 255 261 259 253 231 212 198 200 206 206 198 190 189 185 175 172 173 178 183 185 187 193 199 206 233 258 247 256 270 275 283
267 274 269 273 274 269 266 269 270 270 274 282 278 261 260 262 255 232 212 203 208 210 207 197 191 191 187 178 175 178 180 179 180 184 189 192 194 196 227 273 270 268 266 286
274 280 279 275 274 274 272 274 278 282 285 284 283 276 263 259 255 236 223 215 210 204 202 198 194 194 186 180 178 181 179 181 180 182 184 185 187 186 190 203 242 277 285 294
266 267 272 278 279 282 283 286 290 292 294 293 286 278 269 262 256 247 235 214 198 200 202 200 199 193 182 181 182 181 179 179 178 175 180 181 180 179 187 199 211 234 257 296
280 282 284 287 289 294 301 305 302 303 306 305 302 294 281 269 262 256 238 202 198 209 206 203 203 190 179 180 182 180 181 184 176 176 179 180 180 182 188 193 200 216 229 217
286 290 292 301 316 329 334 332 327 323 320 313 306 301 295 287 276 264 247 220 215 217 209 204 198 182 179 181 181 178 175 182 181 180 181 182 182 185 184 182 188 201 216 223
2 10 11 8 3 352 342 335 326 318 307 298 298 299 296 288 276 270 258 233 223 226 216 200 186 180 181 181 181 175 171 173 176 176 178 181 183 182 180 180 186 196 212 230
22 12 360 351 341 326 314 308 303 299 298 300 302 299 291 283 275 272 262 229 223 231 219 193 192 185 182 184 180 176 170 170 173 174 174 186 187 183 181 181 185 190 191 193
356 343 332 322 317 310 302 298 298 298 298 301 301 299 295 289 283 276 258 240 234 227 194 189 193 187 182 185 182 178 174 172 172 172 173 180 182 182 183 183 183 185 186 186
330 323 319 315 310 306 301 300 300 298 297 295 292 290 288 287 282 271 259 261 249 206 189 196 193 185 182 185 184 181 177 173 172 171 174 178 181 183 183 182 183 185 183 180
309 308 306 303 301 298 296 294 292 290 288 285 282 281 284 286 283 270 250 250 249 204 194 196 190 187 185 186 186 182 180 175 171 170 172 176 180 181 181 180 181 182 177 172
298 299 298 297 296 295 294 288 284 283 280 277 276 277 276 276 273 270 276 254 223 215 204 197 194 192 191 187 185 184 181 177 173 171 173 176 179 180 178 177 178 175 170 170
296 295 290 288 289 290 291 288 281 276 272 271 267 264 265 274 276 259 254 259 234 226 212 203 201 196 193 187 184 184 183 179 174 170 170 172 175 175 174 173 173 171 170 169
290 290 290 290 289 288 287 287 285 280 275 273 269 261 250 242 252 267 267 251 241 236 220 210 204 200 192 187 185 184 183 180 174 168 169 171 174 174 173 172 172 171 171 171
288 288 287 281 279 282 284 284 283 279 275 277 276 270 258 249 247 256 260 249 234 235 223 202 199 200 191 185 184 183 182 181 176 171 170 170 172 172 172 171 168 170 170 169
283 283 284 283 279 274 275 278 280 280 275 273 277 276 264 254 250 251 252 248 237 234 220 198 191 191 186 182 180 180 182 182 175 170 169 169 171 173 172 169 169 168 166 165